This is the latest recevied weather packets stored in our database for station/object KC5AV. If no packets are shown the sender has not sent any weather packets the latest 1 day(s).
| Time | Temp. | Humidity | Pressure | Rain* | Wind** | Luminosity | Snow |
|---|---|---|---|---|---|---|---|
| 1778045184 | 23.89° C | 90% | 1009.5 hPa | 0 mm | 0 m/s | 0 W/m² | - |
| 1778044882 | 23.89° C | 90% | 1009.5 hPa | 0 mm | 0.45 m/s, 194° | 0 W/m² | - |
| 1778044579 | 23.89° C | 90% | 1009.5 hPa | 0 mm | 0 m/s | 0 W/m² | - |
| 1778044275 | 23.89° C | 90% | 1009.5 hPa | 0 mm | 0.45 m/s, 124° | 0 W/m² | - |
| 1778043973 | 23.89° C | 90% | 1009.3 hPa | 0 mm | 0 m/s | 0 W/m² | - |
| 1778043670 | 23.89° C | 90% | 1009.1 hPa | 0 mm | 0 m/s | 0 W/m² | - |
| 1778043367 | 23.89° C | 90% | 1009.2 hPa | 0 mm | 0 m/s | 0 W/m² | - |
| 1778043064 | 23.89° C | 90% | 1009.3 hPa | 0 mm | 0.45 m/s, 27° | 0 W/m² | - |
| 1778042761 | 23.89° C | 90% | 1009 hPa | 0 mm | 0.45 m/s, 94° | 0 W/m² | - |
| 1778042458 | 23.89° C | 90% | 1008.9 hPa | 0 mm | 0 m/s | 0 W/m² | - |
| 1778042155 | 23.89° C | 89% | 1008.7 hPa | 0 mm | 0.45 m/s, 307° | 0 W/m² | - |
| 1778041854 | 23.89° C | 89% | 1008.7 hPa | 0 mm | 0 m/s | 0 W/m² | - |
| 1778041552 | 23.89° C | 89% | 1008.7 hPa | 0 mm | 0.45 m/s, 206° | 0 W/m² | - |
| 1778041250 | 23.89° C | 89% | 1008.4 hPa | 0 mm | 0 m/s | 0 W/m² | - |
| 1778040948 | 23.89° C | 88% | 1008.3 hPa | 0 mm | 1.34 m/s, 164° | 0 W/m² | - |
| 1778040644 | 23.89° C | 88% | 1008.4 hPa | 0 mm | 0 m/s | 0 W/m² | - |
| 1778040343 | 24.44° C | 88% | 1008.4 hPa | 0 mm | 0 m/s | 0 W/m² | - |
| 1778040038 | 24.44° C | 88% | 1008.1 hPa | 0 mm | 0.45 m/s, 83° | 0 W/m² | - |
| 1778039736 | 24.44° C | 87% | 1008.4 hPa | 0 mm | 0.45 m/s, 54° | 0 W/m² | - |
| 1778039432 | 24.44° C | 87% | 1008.4 hPa | 0 mm | 1.34 m/s, 106° | 0 W/m² | - |
| 1778039130 | 24.44° C | 87% | 1008.5 hPa | 0 mm | 1.79 m/s, 82° | 0 W/m² | - |
| 1778038826 | 24.44° C | 86% | 1008.3 hPa | 0 mm | 0.89 m/s, 146° | 0 W/m² | - |
| 1778038524 | 24.44° C | 86% | 1008.5 hPa | 0 mm | 0.45 m/s, 109° | 0 W/m² | - |
| 1778038221 | 25° C | 85% | 1008.2 hPa | 0 mm | 0.89 m/s, 152° | 0 W/m² | - |
| 1778037918 | 25° C | 85% | 1008.2 hPa | 0 mm | 0.89 m/s, 258° | 0 W/m² | - |
* Rain latest hour (hover to see other rain measurements)
** Current wind speed in m/s (hover to see current wind gust speed)